Regional Weather Roundup
Issued by NWS Little Rock, AR

Home | Current Version | Previous Version | Text Only | Print | Product List | Glossary Off
Versions: 1 2 3 4 5 6 7 8 9 10 11 12 13 14 15 16 17 18 19 20 21 22 23 24 25 26 27 28 29 30 31 32 33 34 35 36 37 38 39 40 41 42 43 44 45 46 47 48 49 50

000
ASUS44 KLZK 040205
RWRLZK

WEATHER ROUNDUP FOR ARKANSAS
NATIONAL WEATHER SERVICE LITTLE ROCK AR
800 PM CST TUE MAR 03 2015

NOTE: "FAIR" INDICATES FEW OR NO CLOUDS BELOW 12,000 FEET WITH NO
SIGNIFICANT WEATHER AND/OR OBSTRUCTIONS TO VISIBILITY.

ARZ001-003-010-029-040300-
NORTHWEST ARKANSAS

CITY           SKY/WX    TMP DP  RH WIND       PRES   REMARKS
FAYETTEVILLE   LGT RAIN  47  47 100 CALM      29.88R FOG
FORT SMITH     LGT RAIN  44  42  93 NE3       29.89R VSB 1
HARRISON       LGT RAIN  49  48  97 NW3       29.89R FOG
BENTONVILLE    CLOUDY    46  43  87 CALM      29.89R
ROGERS         CLOUDY    46  46 100 CALM      29.89R FOG
SILOAM SPGS    CLOUDY    46  43  87 CALM      29.89S
HIGHFILL       CLOUDY    47  46  97 CALM      29.87R FOG
SPRINGDALE     CLOUDY    48  48 100 CALM      29.90R FOG
$$

ARZ004-005-016-040300-
NORTH CENTRAL ARKANSAS

CITY           SKY/WX    TMP DP  RH WIND       PRES   REMARKS
BATESVILLE     CLOUDY    54  50  87 W5        29.89R
FLIPPIN        CLOUDY    52  46  82 N5        29.88R
MTN HOME       CLOUDY    50  49  96 NW5       29.88R FOG
$$

ARZ040-041-040300-
WEST CENTRAL ARKANSAS

CITY           SKY/WX    TMP DP  RH WIND       PRES   REMARKS
MENA           CLOUDY    52  52 100 W5        29.86S
MOUNT IDA      LGT RAIN  54  52  93 CALM      29.84R FOG
$$

ARZ009-017-025-026-028-040300-
NORTHEAST ARKANSAS

CITY           SKY/WX    TMP DP  RH WIND       PRES   REMARKS
CORNING        LGT RAIN  46  46 100 S8        29.88S VSB 1/4
JONESBORO      FOG       50  50 100 SW7       29.87S VSB 1/2
NEWPORT        FOG       53  53 100 S9        29.88S VSB 3/4
WALNUT RIDGE   CLOUDY    50  48  93 W6        29.87R
BLYTHEVILLE    FOG       53  53 100 SW6       29.87F VSB 1/2
$$

ARZ022-023-033-042-044-040300-
CENTRAL ARKANSAS

CITY           SKY/WX    TMP DP  RH WIND       PRES   REMARKS
LITTLE ROCK    DRZL/FOG  53  51  93 CALM      29.88S VSB 1/2
N LITTLE ROCK  CLOUDY    52  52 100 SW6       29.88S
JACKSONVILLE   FOG       53  53  99 CALM      29.87S VSB 3/4
SEARCY         FOG       51  50  96 CALM      29.90R VSB 1/2
HOT SPRINGS    LGT RAIN  53  52  96 E5        29.87S VSB 1/2
RUSSELLVILLE   RAIN      46  46 100 CALM      29.88S FOG
CLINTON        LGT RAIN  46  46 100 CALM      29.91R VSB 1/2
$$

ARZ036-040300-
EAST ARKANSAS

CITY           SKY/WX    TMP DP  RH WIND       PRES   REMARKS
WEST MEMPHIS   CLOUDY    59  59 100 SW8       29.88F
$$

ARZ050-053-066-070-073-040300-
SOUTHWEST ARKANSAS

CITY           SKY/WX    TMP DP  RH WIND       PRES   REMARKS
ARKADELPHIA    FOG       50  50 100 N3        29.88S VSB 1/4
CAMDEN         FOG       55  54  94 CALM      29.89R VSB 1/4
TEXARKANA      LGT RAIN  63  62  97 S5        29.86R FOG
EL DORADO      CLOUDY    61  60  97 SE3       29.88S FOG
DE QUEEN       CLOUDY    49  48  97 CALM      29.85S FOG
$$

ARZ056-057-069-040300-
SOUTHEAST ARKANSAS

CITY           SKY/WX    TMP DP  RH WIND       PRES   REMARKS
PINE BLUFF     FOG       57  56  96 S7        29.89S VSB 3/4
STUTTGART      CLOUDY    55  54  94 S10       29.89F VSB 1/2
MONTICELLO     CLOUDY    60  59  96 S7        29.90S FOG

$$




USA.gov is the U.S. government's official web portal to all federal, state and local government web resources and services.